Back to catalog

IRIDIUM 33 DEB

AlivePO
NORAD 34487·DEBRIS·🇺🇸 United States

Launched Sep 14, 1997 from Baikonur Cosmodrome

Loading…

Next Passes (next 24 hours)

TLE

FreshSource: Space-Track

Epoch: Sep 14, 2026, 10:26 UTC

1 34487U 97051GC  26257.43473927  .00000424  00000-0  11876-3 0  9995
2 34487  86.3377 253.6372 0028792 300.8818 214.8087 14.43561492922255

Track IRIDIUM 33 DEB in real time with AllMySat

Download on the App Store